Saint Petersburg, FL

06:21 AM EST on Januari 24, 2018 (GMT -0500)
ME8730 | | Change Station

Elev 82 ft 27.79 °N, 82.68 °W | Updated 45 minutes ago

Klart
Klart
49.0 °F
Feels Like 49 °F
N
0.0
Vind Växlande Vind from NV
Gusts 0.0 miles/tim

Idag
High -- | Low -- °F
--% Chance of Precip.
Yesterday
High -- | Low -- °F
Precip. -- tum
Lufttryck 30.15 tum
Sikt 10.0 miles
Molnigt Klart
Vindavkylning 49 °F
Daggpunkt 47 °F
Luftfuktighet 93%
Rainfall 0.06 tum
Snow Depth Not available.
7:20 AM 6:05 PM
Första kvarteret, 45% visible
METAR KSPG 241053Z AUTO 02012KT 10SM CLR 13/07 A3015 RMK AO2 SLP208 T01330072
Lufttryck 30.15 tum
Sikt 10.0 miles
Molnigt Klart
Vindavkylning 49 °F
Daggpunkt 47 °F
Luftfuktighet 93%
Rainfall 0.06 tum
Snow Depth Not available.
7:20 AM 6:05 PM
Första kvarteret, 45% visible
METAR KSPG 241053Z AUTO 02012KT 10SM CLR 13/07 A3015 RMK AO2 SLP208 T01330072

Get Severe Weather Alerts

Thanks for signing up!

Be on the lookout for a verification email in your inbox.

You'll start receiving the daily forecast at 6 AM.

×

10-Day Weather Forecast

Almanac

Astronomi

Jan. 24, 2018 Rise Set
Actual Time
Civil Twilight
Nautical Twilight
Astronomical Twilight
Månen
Length Of Visible Light
Dagens längd
Tomorrow will be .
, % of the Moon is Illuminated

Today's Extremes

State Highs State Lows

Community

WunderPhotos

Category 6

Welcome to Category 6. This is the collective home for Weather Underground's featured writeups by Dr. Jeff Masters (right), Bob Henson (left), Chris Burt, and other regular contributors.

Nearby

Air Quality

  Air Quality AQ Index Pollutant
Not available.

Snödjup

Station Depth Elevation

Earthquake Activity

Stad Distance Mag. Time & Date
Minimum magnitude displayed is 2.5.

Coastal Water Temperatures

Plats Temperatur

Stations

Nearby Weather Stations

Station Location Temp Vindavkylning Daggpunkt Luftfuktighet Vind Precip. Elev Uppdaterad Type
                   

Watches & Warnings

There are currently no watches in effect.